Regional Weather Roundup
Issued by NWS

Home | Current Version | Previous Version | Graphics & Text | Print | Product List | Glossary On
Versions: 1 2 3 4 5 6 7 8 9 10 11 12 13 14 15 16 17 18 19 20 21 22 23 24 25 26 27
000
ASUS45 KBOU 261807
RWRCO

WEATHER ROUNDUP FOR COLORADO
NATIONAL WEATHER SERVICE DENVER/BOULDER CO
1200 PM MDT THU MAY 26 2016

NOTE: "FAIR" INDICATES FEW OR NO CLOUDS BELOW 12000 FEET WITH NO
SIGNIFICANT WEATHER AND/OR OBSTRUCTIONS TO VISIBILITY.

COZ001>005-013-030-031-261900-
...NORTHWEST COLORADO...

CITY           SKY/WX    TMP DP  RH WIND       PRES   REMARKS
CRAIG          FAIR      60  39  45 SW7       29.97F
HAYDEN         FAIR      54  34  47 W12       29.97F
MEEKER         FAIR      64  31  28 NE14G20   29.95F
MOUNT WERNER   NOT AVBL
STEAMBOAT SPGS FAIR      60  28  29 W6        29.95F
WALDEN         FAIR      54  18  24 CALM      30.02F
$$

COZ006>008-011-261900-
...WEST CENTRAL VALLEYS...

CITY           SKY/WX    TMP DP  RH WIND       PRES   REMARKS
GRAND JUNCTION FAIR      68  19  15 CALM      29.87F
MONTROSE       CLOUDY    64  17  16 S13G25    29.93S
EAGLE          MOSUNNY   63  18  17 CALM      29.95F
RIFLE          FAIR      63  28  26 SE10      29.90F
DELTA          NOT AVBL
NUCLA          FAIR      66  18  15 S12G18    29.95F THUNDER
$$

COZ017>023-064>068-261900-
...SOUTHWEST COLORADO...

CITY           SKY/WX    TMP DP  RH WIND       PRES   REMARKS
DURANGO        CLOUDY    56  22  26 S12G24    29.99S THUNDER
CORTEZ         FAIR      63  21  20 SW13G20   29.94F
PAGOSA SPRINGS FAIR      58  23  26 SW10      29.99F
TELLURIDE      PTSUNNY   44  31  60 NE5       30.09S
WOLF CREEK PAS FAIR      37  21  52 SW20G30   30.16F
$$

COZ009-010-012-014-032>034-037-058>063-261900-
...CENTRAL COLORADO...

CITY           SKY/WX    TMP DP  RH WIND       PRES   REMARKS
ASPEN          PTSUNNY   57  20  23 E6        29.97F
BUENA VISTA    FAIR      56  21  25 W6G17     29.99F
COPPER MTN     NOT AVBL
BERTHOUD PASS  HAZE      30  21  69 E13G25    30.17F THUNDER VSB<1/4
COTTONWOOD PAS FAIR      52  23  32 W3        30.07F
GUNNISON       FAIR      55  19  24 SW5       30.00F
KREMMLING      FAIR      61  19  20 CALM      29.96F
LEADVILLE      CLOUDY    45  15  30 S20G25    30.06S
MONARCH PASS   MIX PCPN  34  21  60 NE13G23   30.25F WCI  25
SALIDA         PTSUNNY   60  20  21 W5        30.03F
SUNLIGHT       PTSUNNY   43  23  45 W3        30.15S
WILKERSON PASS FLURRIES  36  30  80 CALM      30.17S
$$

COZ069>075-261900-
...SAN LUIS VALLEY/SANGRE DE CRISTO MOUNTAINS...

CITY           SKY/WX    TMP DP  RH WIND       PRES   REMARKS
ALAMOSA        FAIR      63  20  19 VRB7      29.94F
LA VETA PASS   TSTM      39  32  75 S5        30.10S
SAGUACHE       FAIR      59  27  29 NW22      29.98S
$$

COZ035-036-038>040-261900-
...NORTHERN COLORADO FRONT RANGE...

CITY           SKY/WX    TMP DP  RH WIND       PRES   REMARKS
DENVER INTL AP PTSUNNY   66  46  48 E10G18    29.92F
DMNS CITY PARK   N/A     64  41  43 NE13      29.91F
AURORA         PTSUNNY   66  45  47 SE6       29.93F
FRONT RANGE AP PTSUNNY   64  46  52 E8G17     29.93F
ERIE MUNI ARPT FAIR      64  42  44 E5        29.92F
BOULDER MUN AP PTSUNNY   63  39  42 E6        29.93S
CENTENNIAL     PTSUNNY   65  41  41 VRB5      29.92F
BROOMFIELD     PTSUNNY   63  41  45 CALM      29.95F
FORT COLLINS   FAIR      66  43  42 SE10G23   29.93F
LONGMONT       CLOUDY    65  44  45 E7        29.94F
$$

COZ041-046-047-076>085-087-088-261900-
...PIKES PEAK/PALMER DIVIDE AND SOUTHERN FOOTHILLS...

CITY           SKY/WX    TMP DP  RH WIND       PRES   REMARKS
COLO. SPRINGS  PTSUNNY   65  40  39 E10       29.93F
A. F. ACADEMY  FAIR      63  37  39 SE9       29.93F
SCHRIEVER AFB  NOT AVBL
ELLICOTT       PTSUNNY  N/A N/A N/A E13G22    29.92F
FALCON         FAIR      64  40  41 E10       29.97F
FORT CARSON    PTSUNNY   64  44  47 E9        29.90F
LIMON          FAIR      66  46  48 E15       29.91F
MONUMENT HILL  FAIR      59  41  51 SE6       29.98F
TRINIDAD       FAIR      68  41  37 NE9       29.87F
$$

COZ042>045-048>051-090-091-261900-
...NORTHEAST COLORADO...

CITY           SKY/WX    TMP DP  RH WIND       PRES   REMARKS
GREELEY ARPT   CLOUDY    61  39  44 E18       29.93F THUNDER
AKRON          PTSUNNY   68  41  37 E18       29.91F
BURLINGTON     PTSUNNY   73  48  41 E22G28    29.86F
WRAY           PTSUNNY   73  43  33 E16G23    29.88F
STERLING       PTSUNNY   70  46  43 NE9       29.90F
HOLYOKE        NOT AVBL
FORT MORGAN    FAIR      69  39  33 NE10G16   29.92F
$$

COZ086-089-092>099-261900-
...SOUTHEAST COLORADO...

CITY           SKY/WX    TMP DP  RH WIND       PRES   REMARKS
PUEBLO         FAIR      75  48  38 N13G20    29.85F
LA JUNTA       FAIR      73  51  46 VRB6G17   29.82F
LAMAR          FAIR      74  55  51 NE10      29.78F
SPRINGFIELD      N/A     74  51  44 MISG      29.82F
$$




USA.gov is the U.S. government's official web portal to all federal, state and local government web resources and services.